TIANMU-1 04

Last updated on Fri Sep 11 2026 00:02:39 GMT+0000 (Coordinated Universal Time)

1 55974U 23039B 26253.56754446 .00012499 00000+0 22324-3 0 9996 2 55974 97.5192 70.2180 0004630 124.8154 235.3533 15.50179071194061
UTC large
Height (km)
Speed (km/s)
/
Latitude / Longitude
Inclination (degrees)
Orbital Period (minutes)
Azimuth
Elevation
Range (km)
Doppler Factor

Next 0 passes for location: London (51.5072 / 0.1276)

No passes found over London.
TIANMU-1 04